Previsão horária em Cempkowo

Hoje, 3 Agosto, Terça-feira

Tempo Temperatura Precipitação Vento Pressão Humidade
00:00 +15°C° 0 mm 4 m/s 748 mmHg 62%
01:00 +16°C° 0 mm 3 m/s 748 mmHg 62%
02:00 +14°C° 0 mm 3 m/s 748 mmHg 68%
03:00 +13°C° 0 mm 3 m/s 749 mmHg 74%
04:00 +12°C° 0 mm 3 m/s 749 mmHg 79%
05:00 +14°C° 0 mm 3 m/s 749 mmHg 74%
06:00 +15°C° 0 mm 4 m/s 749 mmHg 70%
07:00 +17°C° 0 mm 4 m/s 750 mmHg 66%
08:00 +19°C° 0 mm 5 m/s 750 mmHg 60%
09:00 +20°C° 0 mm 5 m/s 750 mmHg 54%
10:00 +22°C° 0 mm 5 m/s 750 mmHg 48%
11:00 +22°C° 0 mm 5 m/s 750 mmHg 46%
12:00 +23°C° 0 mm 5 m/s 750 mmHg 43%
13:00 +23°C° 0 mm 5 m/s 749 mmHg 40%
14:00 +23°C° 0 mm 4 m/s 749 mmHg 43%
15:00 +22°C° 0 mm 4 m/s 749 mmHg 45%
16:00 +22°C° 0 mm 4 m/s 749 mmHg 48%
17:00 +21°C° 0 mm 3 m/s 749 mmHg 53%
18:00 +20°C° 0 mm 2 m/s 749 mmHg 57%
19:00 +20°C° 0 mm 1 m/s 749 mmHg 61%
20:00 +19°C° 0 mm 1 m/s 749 mmHg 63%
21:00 +19°C° 0 mm 1 m/s 750 mmHg 64%
22:00 +18°C° 0 mm 2 m/s 750 mmHg 65%
23:00 +18°C° 0 mm 1 m/s 750 mmHg 68%

Amanhã, 4 Agosto, Quarta-feira

Tempo Temperatura Precipitação Vento Pressão Humidade
00:00 +18°C° 0 mm 1 m/s 750 mmHg 72%
01:00 +16°C° 0 mm 1 m/s 750 mmHg 75%
02:00 +16°C° 0.1 mm 1 m/s 750 mmHg 77%
03:00 +16°C° 0.1 mm 1 m/s 750 mmHg 79%
04:00 +16°C° 0.1 mm 2 m/s 749 mmHg 81%
05:00 +16°C° 0.2 mm 1 m/s 750 mmHg 82%
06:00 +18°C° 0.2 mm 1 m/s 750 mmHg 83%
07:00 +18°C° 0.2 mm 1 m/s 750 mmHg 84%
08:00 +18°C° 0.2 mm 1 m/s 750 mmHg 83%
09:00 +18°C° 0.2 mm 2 m/s 750 mmHg 81%
10:00 +18°C° 0.2 mm 2 m/s 750 mmHg 80%
11:00 +19°C° 0.2 mm 2 m/s 750 mmHg 75%
12:00 +20°C° 0.2 mm 2 m/s 750 mmHg 70%
13:00 +21°C° 0.2 mm 2 m/s 750 mmHg 65%
14:00 +21°C° 0.4 mm 2 m/s 750 mmHg 67%
15:00 +20°C° 0.4 mm 3 m/s 749 mmHg 70%
16:00 +20°C° 0.4 mm 3 m/s 749 mmHg 72%
17:00 +19°C° 0.4 mm 3 m/s 749 mmHg 77%
18:00 +18°C° 0.4 mm 2 m/s 749 mmHg 82%
19:00 +17°C° 0.4 mm 2 m/s 749 mmHg 87%
20:00 +16°C° 0.1 mm 2 m/s 749 mmHg 88%
21:00 +16°C° 0.1 mm 2 m/s 749 mmHg 89%
22:00 +16°C° 0.1 mm 2 m/s 749 mmHg 90%
23:00 +15°C° 0 mm 1 m/s 749 mmHg 89%

Depois de amanhã, 5 Agosto, Quinta-feira

Tempo Temperatura Precipitação Vento Pressão Humidade
00:00 +15°C° 0 mm 1 m/s 749 mmHg 89%
01:00 +14°C° 0 mm 0 m/s 749 mmHg 89%
02:00 +14°C° 0 mm 0 m/s 749 mmHg 89%
03:00 +14°C° 0 mm 0 m/s 749 mmHg 89%
04:00 +13°C° 0 mm 0 m/s 748 mmHg 89%
05:00 +15°C° 0 mm 1 m/s 748 mmHg 86%
06:00 +16°C° 0 mm 1 m/s 748 mmHg 83%
07:00 +18°C° 0 mm 1 m/s 748 mmHg 79%
08:00 +18°C° 0 mm 2 m/s 748 mmHg 75%
09:00 +20°C° 0 mm 2 m/s 748 mmHg 70%
10:00 +21°C° 0 mm 2 m/s 748 mmHg 66%
11:00 +21°C° 0.1 mm 2 m/s 747 mmHg 64%
12:00 +21°C° 0.1 mm 3 m/s 747 mmHg 62%
13:00 +22°C° 0.1 mm 3 m/s 747 mmHg 61%
14:00 +20°C° 1.1 mm 3 m/s 747 mmHg 70%
15:00 +19°C° 1.1 mm 2 m/s 746 mmHg 80%
16:00 +19°C° 1.1 mm 1 m/s 746 mmHg 90%
17:00 +17°C° 0.4 mm 2 m/s 746 mmHg 92%
18:00 +17°C° 0.4 mm 2 m/s 745 mmHg 93%
19:00 +17°C° 0.4 mm 2 m/s 745 mmHg 95%
20:00 +17°C° 0.1 mm 3 m/s 745 mmHg 94%
21:00 +17°C° 0.1 mm 4 m/s 744 mmHg 94%
22:00 +17°C° 0.1 mm 4 m/s 744 mmHg 93%
23:00 +17°C° 0.1 mm 4 m/s 744 mmHg 93%

6 Agosto, Sexta-feira

Tempo Temperatura Precipitação Vento Pressão Humidade
00:00 +15°C° 0.1 mm 4 m/s 743 mmHg 92%
01:00 +15°C° 0.1 mm 5 m/s 743 mmHg 92%
02:00 +15°C° 0.2 mm 4 m/s 743 mmHg 92%
03:00 +15°C° 0.2 mm 4 m/s 742 mmHg 92%
04:00 +14°C° 0.2 mm 4 m/s 742 mmHg 91%
05:00 +14°C° 0.1 mm 4 m/s 742 mmHg 91%
06:00 +14°C° 0.1 mm 4 m/s 742 mmHg 90%
07:00 +14°C° 0.1 mm 4 m/s 742 mmHg 90%
08:00 +14°C° 0.1 mm 4 m/s 742 mmHg 88%
09:00 +16°C° 0.1 mm 3 m/s 742 mmHg 86%
10:00 +16°C° 0.1 mm 3 m/s 743 mmHg 85%
11:00 +17°C° 0.1 mm 3 m/s 743 mmHg 81%
12:00 +18°C° 0.1 mm 3 m/s 743 mmHg 77%
13:00 +19°C° 0.1 mm 3 m/s 743 mmHg 73%
14:00 +19°C° 0 mm 3 m/s 743 mmHg 72%
15:00 +19°C° 0 mm 3 m/s 743 mmHg 72%
16:00 +19°C° 0 mm 3 m/s 743 mmHg 72%
17:00 +19°C° 0 mm 2 m/s 743 mmHg 74%
18:00 +18°C° 0 mm 2 m/s 743 mmHg 75%
19:00 +18°C° 0 mm 2 m/s 743 mmHg 76%
20:00 +17°C° 0 mm 2 m/s 743 mmHg 77%
21:00 +17°C° 0 mm 3 m/s 744 mmHg 78%
22:00 +16°C° 0 mm 3 m/s 744 mmHg 79%
23:00 +16°C° 0 mm 3 m/s 744 mmHg 81%

7 Agosto, Sábado

Tempo Temperatura Precipitação Vento Pressão Humidade
00:00 +16°C° 0 mm 3 m/s 744 mmHg 82%
01:00 +14°C° 0 mm 3 m/s 744 mmHg 83%
02:00 +14°C° 0 mm 3 m/s 744 mmHg 85%
03:00 +14°C° 0 mm 3 m/s 745 mmHg 86%
04:00 +13°C° 0 mm 3 m/s 745 mmHg 87%
05:00 +14°C° 0 mm 3 m/s 745 mmHg 81%
06:00 +17°C° 0 mm 3 m/s 745 mmHg 76%
07:00 +18°C° 0 mm 4 m/s 746 mmHg 70%
08:00 +20°C° 0 mm 4 m/s 746 mmHg 62%
09:00 +22°C° 0 mm 4 m/s 746 mmHg 55%
10:00 +23°C° 0 mm 4 m/s 746 mmHg 47%
11:00 +25°C° 0 mm 4 m/s 746 mmHg 45%
12:00 +26°C° 0 mm 4 m/s 746 mmHg 42%
13:00 +27°C° 0 mm 4 m/s 746 mmHg 40%
14:00 +27°C° 0 mm 4 m/s 746 mmHg 42%
15:00 +27°C° 0 mm 4 m/s 746 mmHg 44%
16:00 +27°C° 0 mm 4 m/s 746 mmHg 46%
17:00 +26°C° 0 mm 3 m/s 747 mmHg 51%
18:00 +24°C° 0 mm 3 m/s 747 mmHg 56%
19:00 +23°C° 0 mm 2 m/s 747 mmHg 60%
20:00 +23°C° 0 mm 2 m/s 747 mmHg 62%
21:00 +21°C° 0 mm 2 m/s 747 mmHg 63%
22:00 +20°C° 0 mm 2 m/s 747 mmHg 64%
23:00 +20°C° 0 mm 3 m/s 748 mmHg 65%

8 Agosto, Domingo

Tempo Temperatura Precipitação Vento Pressão Humidade
00:00 +20°C° 0 mm 3 m/s 748 mmHg 65%
01:00 +19°C° 0 mm 3 m/s 748 mmHg 66%
02:00 +19°C° 0 mm 3 m/s 748 mmHg 70%
03:00 +18°C° 0 mm 3 m/s 748 mmHg 73%
04:00 +17°C° 0 mm 3 m/s 748 mmHg 77%
05:00 +19°C° 0 mm 3 m/s 749 mmHg 73%
06:00 +20°C° 0 mm 3 m/s 749 mmHg 70%
07:00 +22°C° 0 mm 3 m/s 749 mmHg 66%
08:00 +24°C° 0 mm 3 m/s 749 mmHg 60%
09:00 +26°C° 0 mm 3 m/s 749 mmHg 55%
10:00 +28°C° 0 mm 3 m/s 749 mmHg 49%
11:00 +28°C° 0 mm 4 m/s 749 mmHg 49%
12:00 +28°C° 0 mm 4 m/s 749 mmHg 49%
13:00 +28°C° 0 mm 4 m/s 749 mmHg 49%
14:00 +27°C° 0.1 mm 5 m/s 750 mmHg 57%
15:00 +25°C° 0.1 mm 5 m/s 751 mmHg 64%
16:00 +22°C° 0.1 mm 5 m/s 751 mmHg 71%
17:00 +21°C° 0.1 mm 4 m/s 751 mmHg 74%
18:00 +20°C° 0.1 mm 3 m/s 752 mmHg 78%
19:00 +19°C° 0.1 mm 2 m/s 752 mmHg 82%
20:00 +18°C° 0 mm 2 m/s 752 mmHg 85%
21:00 +18°C° 0 mm 2 m/s 752 mmHg 87%
22:00 +17°C° 0 mm 2 m/s 753 mmHg 90%
23:00 +16°C° 0 mm 2 m/s 753 mmHg 90%
Mostrar mais

Necessitamos do seu Consentimento

A Meteoprog e os seus Fornecedores de Serviços podem armazenar e aceder a dados pessoais como cookies, identificadores do dispositivo ou outras tecnologias semelhantes existentes no seu dispositivo e processar estes dados para personalizar conteúdos e anúncios, assim como funcionalidades nas redes sociais e análise de tráfego.

  • Armazenar e/ou aceder a informações no seu dispositivo

    Os cookies, identificadores do dispositivo ou outras informações podem ser armazenados ou acedidos no seu dispositivo, para os fins acima indicados.

  • Anúncios e conteúdos personalizados, medição de anúncios e conteúdos, dados sobre o público-alvo e desenvolvimento de produtos

    Os anúncios e os conteúdos podem ser personalizados com base num perfil. Podem ser adicionados dados adicionais para uma maior personalização dos anúncios e dos conteúdos. A eficácia dos anúncios e dos conteúdos pode ser medida. Podem ser obtidas informações sobre o público que visualizou os anúncios e os conteúdos. Estes dados podem ser usados para desenvolver ou melhorar sistemas, softwares ou a experiência do utilizador.

Ao clicar em "Eu concordo”, permitirá o uso de cookies, identificadores do dispositivo e web beacons mencionados ou outras tecnologias semelhantes. As configurações do navegador do seu dispositivo podem ser alteradas.

Para certos fins, podem ser invocados interesses legítimos ao invés de consentimento. Pode ler mais informação sobre este assunto na nossa Política de Privacidade e Cookies.